Regional Weather Roundup
Issued by NWS

Home | Current Version | Previous Version | Graphics & Text | Print | Product List | Glossary On
Versions: 1 2 3 4 5 6 7 8 9 10 11 12 13 14 15 16 17 18 19 20 21 22 23 24 25 26 27 28 29 30 31 32 33 34 35 36 37 38 39 40 41 42 43 44 45 46 47 48 49 50
000
ASUS45 KCYS 172210
RWRWY

WYOMING REGIONAL WEATHER ROUNDUP
NATIONAL WEATHER SERVICE CHEYENNE WY
400 PM MDT WED SEP 17 2014

NOTE:  "FAIR" INDICATES FEW OR NO CLOUDS BELOW 12,000 FEET
WITH NO SIGNIFICANT WEATHER AND/OR OBSTRUCTIONS TO VISIBILITY.

WYZ001-172300-
YELLOWSTONE NATIONAL PARK

CITY           SKY/WX    TMP DP  RH WIND       PRES   REMARKS
LK YELLOWSTONE   N/A     70  33  25 W10G22    30.21F
W YELLOWSTONE  NOT AVBL

$$
WYZ002>013-054>058-071-098>099-172300-
NORTHERN WYOMING

CITY           SKY/WX    TMP DP  RH WIND       PRES   REMARKS
JACKSON        MOSUNNY   77  37  24 S12       30.09F
CODY           SUNNY     81  43  26 E7        29.98R
GREYBULL       SUNNY     83  46  27 S6        29.90F
WORLAND        SUNNY     83  48  29 NE5       29.91F
SHERIDAN       SUNNY     84  47  27 CALM      29.92F
BUFFALO        LGT RAIN  81  41  24 E5        29.98F
GILLETTE       SUNNY     85  42  22 CALM      29.94F
HULETT         FAIR      82  41  23 MISG      29.96
NEWCASTLE      FAIR      84  32  15 S6        29.95

$$
WYZ014>020-022>026-101>103-172300-
CENTRAL WYOMING

CITY           SKY/WX    TMP DP  RH WIND       PRES   REMARKS
BIG PINEY      TSTM      67  50  54 NE7       30.16F
PINEDALE       PTCLDY    75  36  23 N3        30.17F
DUBOIS         MOCLDY    77  32  19 N14G20    30.12F
LANDER         MOSUNNY   86  32  14 NW12G22   29.99F
RIVERTON       MOSUNNY   84  35  17 S6        30.01F
CASPER         PTSUNNY   84  34  16 NW14G24   30.02F
DOUGLAS        PTSUNNY   84  40  21 W23G31    29.99F

$$
WYZ021-027>030-104>119-172300-
SOUTHERN WYOMING

CITY           SKY/WX    TMP DP  RH WIND       PRES   REMARKS
EVANSTON       MOSUNNY   78  39  24 E9        30.15F
KEMMERER       PTCLDY   N/A N/A N/A E6        30.18F
FORT BRIDGER   FAIR      79  40  25 SE6       30.19F
ROCK SPRINGS   SUNNY     79  34  19 MISG      30.13F
DIXON          FAIR      83  33  16 W5        30.14F
RAWLINS        MOSUNNY   77  34  21 VRB6      30.16F
SARATOGA       FAIR      75  39  27 N14       30.19F
LARAMIE        PTSUNNY   65  49  56 N6        30.20F
CHEYENNE       MOSUNNY   78  41  26 NE15G25   30.09S
TORRINGTON     PTSUNNY   85  43  22 CALM      29.94F
PINE BLUFFS    FAIR      75  52  43 N14G22    30.04S

$$


USA.gov is the U.S. government's official web portal to all federal, state and local government web resources and services.